Weather in Kyker

Russia / Zabaykalsky Krai     53°10′07″N   115°49′49″E
temp.,
°C
wind,
m/s
gust,
m/s
humid.,
%
clouds,
%
prec.,
mm/h
press.,
hPa
HPBL,
m
17 april, sat
sat1700:00−2wsw21537 0.0 101417
03:00−4wsw117041 0.0 101310
06:00−5sw117896 0.0 101310
09:00+1ssw224980 0.0 1011328
12:00+9sw353222 0.0 10061053
15:00+13wsw58237 0.0 10032002
18:00+13w58225 0.0 10012233
21:00+6w22415 0.0 100315
18 april, sun
sun1800:00+3wnw2249100 0.0 100421
03:00+2sw1160100 0.0 100410
06:00+1w1165100 0.0 100510
09:00+6w1445100 0.0 1004421
12:00+8nw4533100 0.0 10041663
15:00+10nnw472691 0.0 10042651
18:00+4n6745100 0.1 10101233
21:00−2n610366 0.1 1017968
19 april, mon
mon1900:00−5n5113518 0.0 1021681
03:00−7n411330 0.0 1024665
06:00−10nnw34440 0.0 102680
09:00−5n34200 0.0 1026964
12:000nne23114 0.0 10241675
15:00+4nnw0295 0.0 10201986
18:00+3sse33115 0.0 10181905
21:00−2ese2219100 0.0 101817
20 april, tue
tue2000:00−3ese2325100 0.0 101777
03:00−3sse26250 0.0 1013131
06:00−4sse123082 0.0 101141
09:00+1s2224100 0.0 1011298
12:00+9wnw3716100 0.0 10081438
15:00+9wnw4727100 0.1 10081935
18:00+7sw3350100 0.1 1010752
21:00+2nw1167100 0.1 101310
21 april, wed
wed2100:000nnw355794 0.0 101486
03:00−2n22495 0.0 101531
06:00−3nnw3450100 0.0 101658
09:00+3nne243147 0.0 1014497
12:00+8ene3324100 0.0 10111515
15:00+10nne3326100 0.0 10082101
18:00+5nne674298 0.0 1011891
21:000n3777100 0.0 1013350